Location: McFarlands Corners
(41.4117°N, 81.3382°W)
Time: 02:37:41
(UTC+00:00)

Tiros 1 - Pass Details

Date: 22 February 2026
Orbit: 618 x 649 km, 48.4° (Epoch: 13 March)

Event Time Altitude Azimuth Distance (km) Brightness Sun altitude
Rises 16:19:33 0° 295° (WNW) 2,906 10.1 35.4°
Reaches altitude 10° 16:21:58 10° 303° (WNW) 1,993 9.3 35.6°
Maximum altitude 16:26:20 42° 15° (NNE) 882 7.9 35.9°
Drops below altitude 10° 16:30:40 10° 87° (E) 1,979 10.0 36.2°
Sets 16:33:04 0° 94° (E) 2,882 10.8 36.4°
